OPS 7218 (TRANSIT 16) 1 02807U 67048A 09006.14812889 .00000074 00000-0 10000-3 0 1692 2 02807 089.6420 209.3257 0020947 352.0515 008.0301 13.49703636 48768 OPS 4947 (TRANSIT 17) 1 02965U 67092A 09006.49330165 .00000078 00000-0 10000-3 0 4626 2 02965 089.2684 134.8676 0047309 176.6475 183.5003 13.52412209 35260 OPS 7034 (TRANSIT 18) 1 03133U 68012A 09006.34390846 .00000075 00000-0 10000-3 0 1717 2 03133 089.9850 287.0327 0077384 071.5726 289.3827 13.50515827 10712 NNSS 19 (TRANSIT 19) 1 04507U 70067A 09007.16558342 .00000028 00000-0 25695-4 0 8211 2 04507 089.8740 313.8430 0171854 188.9434 170.8647 13.50121931887955 NNSS 20 (TRANSIT 20) 1 06909U 73081A 09006.40602019 .00000011 00000-0 21738-5 0 2474 2 06909 089.8548 000.4113 0156674 231.5306 127.1694 13.69735380956911 TRANSAT 1 10457U 77106A 09007.18812020 .00000072 00000-0 10000-3 0 7885 2 10457 089.6726 253.9525 0026851 016.6241 343.5781 13.48255369534278 NOVA 1 1 12458U 81044A 09006.69095253 .00000050 00000-0 10000-3 0 6436 2 12458 090.1048 114.2934 0013493 223.5069 136.4994 13.22695828334490 NOVA 3 1 15362U 84110A 09006.71172449 .00000051 00000-0 10000-3 0 8923 2 15362 089.9726 051.1141 0033740 086.9883 273.5112 13.22470087169766 OSCAR 30 1 15935U 85066A 09006.19410101 .00000027 00000-0 36010-4 0 3188 2 15935 090.0432 021.9708 0167537 242.0393 116.3705 13.35250232139082 OSCAR 24 1 15936U 85066B 09006.13356500 .00000033 00000-0 46475-4 0 6103 2 15936 090.0331 019.2040 0168346 244.7763 113.5856 13.35148836141208 POLAR BEAR 1 17070U 86088A 09006.81956095 .00000056 00000-0 47301-4 0 6529 2 17070 089.5567 117.2038 0040117 036.8455 323.5458 13.74328048110476 OSCAR 27 1 18361U 87080A 09007.07494633 .00000067 00000-0 10000-3 0 2837 2 18361 090.3151 228.1827 0104931 281.4700 077.4674 13.44064605 44983 OSCAR 29 1 18362U 87080B 09007.08097300 .00000067 00000-0 10000-3 0 5371 2 18362 090.3162 228.2926 0106668 292.1402 066.8449 13.43690595 44764 OSCAR 23 1 19070U 88033A 09005.53061046 +.00000060 +00000-0 +10000-3 0 05253 2 19070 090.2431 180.9082 0192371 091.9731 270.3434 13.27089469002261 OSCAR 32 1 19071U 88033B 09006.07536364 .00000059 00000-0 10000-3 0 1450 2 19071 090.2425 181.0043 0190503 082.7466 279.5276 13.27300635 2493 NOVA 2 1 19223U 88052A 09006.25569156 .00000051 00000-0 10000-3 0 3257 2 19223 090.0321 090.2201 0031893 128.8563 231.5441 13.22404512992245 OSCAR 25 1 19419U 88074A 09006.66107099 .00000066 00000-0 10000-3 0 5334 2 19419 089.9054 032.8098 0094817 236.0545 123.1550 13.41795607997178 OSCAR 31 1 19420U 88074B 09006.62059210 .00000066 00000-0 10000-3 0 2037 2 19420 089.9052 032.7436 0092960 230.7527 128.5331 13.41854937997269